[TLELIST] Archives

 

[TLELIST] Current TLEs

December 12th 2024 PST

HST 1 20580U 90037B 24346.91388845 .00008357 00000-0 34992-3 0 9992 2 20580 28.4676 231.1280 0001915 178.7212 181.3386 15.21719777704098 ISS (ZARYA) 1 25544U 98067A 24346.98672894 .00019985 00000-0 35072-3 0 9994 2 25544 51.6393 154.4947 0007200 331.0970 170.8608 15.50504106486123 CXO 1 25867U 99040B 24347.67995738 .00000403 00000-0 00000-0 0 9991 2 25867 45.2638 139.9696 8693340 305.0901 0.0820 0.37810292 15235 ...Continue Reading

[TLELIST] Current TLEs

December 11th 2024 PST

HST 1 20580U 90037B 24345.40545193 .00011521 00000-0 48590-3 0 9992 2 20580 28.4676 241.2964 0002002 163.3979 196.6681 15.21693936703866 ISS (ZARYA) 1 25544U 98067A 24346.21840358 .00019894 00000-0 34957-3 0 9992 2 25544 51.6394 158.3036 0007055 326.7949 203.7258 15.50472908486009 CXO 1 25867U 99040B 24347.67995738 .00000403 00000-0 00000-0 0 9991 2 25867 45.2638 139.9696 8693340 305.0901 0.0820 0.37810292 15235 ...Continue Reading

[TLELIST] Current TLEs

December 11th 2024 PST

HST 1 20580U 90037B 24345.40545193 .00011521 00000-0 48590-3 0 9992 2 20580 28.4676 241.2964 0002002 163.3979 196.6681 15.21693936703866 ISS (ZARYA) 1 25544U 98067A 24346.21840358 .00019894 00000-0 34957-3 0 9992 2 25544 51.6394 158.3036 0007055 326.7949 203.7258 15.50472908486009 CXO 1 25867U 99040B 24347.67995738 .00000403 00000-0 00000-0 0 9991 2 25867 45.2638 139.9696 8693340 305.0901 0.0820 0.37810292 15235 ...Continue Reading

[TLELIST] Current TLEs

December 10th 2024 PST

HST 1 20580U 90037B 24344.15932963 .00011945 00000-0 50448-3 0 9993 2 20580 28.4679 249.6963 0002045 151.2695 208.8011 15.21666200703674 ISS (ZARYA) 1 25544U 98067A 24345.25157410 .00018876 00000-0 33265-3 0 9995 2 25544 51.6398 163.0983 0006803 323.0160 207.4428 15.50429917485856 CXO 1 25867U 99040B 24347.67995738 .00000403 00000-0 00000+0 0 9990 2 25867 45.2638 139.9696 8693340 305.0901 0.0820 0.37810292 26394 ...Continue Reading

[TLELIST] Current TLEs

December 10th 2024 PST

HST 1 20580U 90037B 24344.15932963 .00011945 00000-0 50448-3 0 9993 2 20580 28.4679 249.6963 0002045 151.2695 208.8011 15.21666200703674 ISS (ZARYA) 1 25544U 98067A 24345.25157410 .00018876 00000-0 33265-3 0 9995 2 25544 51.6398 163.0983 0006803 323.0160 207.4428 15.50429917485856 CXO 1 25867U 99040B 24347.67995738 .00000403 00000-0 00000+0 0 9990 2 25867 45.2638 139.9696 8693340 305.0901 0.0820 0.37810292 26394 ...Continue Reading

[TLELIST] Current TLEs

December 9th 2024 PST

HST 1 20580U 90037B 24344.09374362 .00011727 00000-0 49516-3 0 9991 2 20580 28.4679 250.1385 0002045 150.5095 209.5614 15.21664449703923 ISS (ZARYA) 1 25544U 98067A 24343.86747247 .00020292 00000-0 35759-3 0 9998 2 25544 51.6375 169.9650 0007185 317.3594 42.6836 15.50376027485640 CXO 1 25867U 99040B 24345.03608982 .00000536 00000-0 00000-0 0 9998 2 25867 45.1631 140.2245 8694674 304.9292 0.2224 0.37809066 15220 ...Continue Reading

[TLELIST] Current TLEs

December 8th 2024 PST

HST 1 20580U 90037B 24342.78200991 .00011297 00000-0 47713-3 0 9990 2 20580 28.4682 258.9807 0002103 137.6933 222.3823 15.21634196703464 ISS (ZARYA) 1 25544U 98067A 24343.36277656 .00018412 00000-0 32552-3 0 9994 2 25544 51.6385 172.4609 0006853 316.0192 105.3050 15.50356018485569 CXO 1 25867U 99040B 24345.03608982 .00000536 00000-0 00000-0 0 9998 2 25867 45.1631 140.2245 8694674 304.9292 0.2224 0.37809066 15220 ...Continue Reading

[TLELIST] Current TLEs

December 7th 2024 PST

HST 1 20580U 90037B 24341.86378054 .00010968 00000-0 46330-3 0 9992 2 20580 28.4684 265.1697 0002137 128.0372 232.0415 15.21612929703321 ISS (ZARYA) 1 25544U 98067A 24341.95936464 .00018758 00000-0 33207-3 0 9997 2 25544 51.6383 179.4169 0006947 310.0949 193.3515 15.50304543485348 CXO 1 25867U 99040B 24342.39125787 .00000678 00000-0 00000-0 0 9998 2 25867 45.0848 140.4320 8695375 304.8223 0.1385 0.37803356 15219 ...Continue Reading

[TLELIST] [TLELIST] Current TLEs

December 7th 2024 PST

HST 1 20580U 90037B 24341.86378054 .00010968 00000-0 46330-3 0 9992 2 20580 28.4684 265.1697 0002137 128.0372 232.0415 15.21612929703321 ISS (ZARYA) 1 25544U 98067A 24341.95936464 .00018758 00000-0 33207-3 0 9997 2 25544 51.6383 179.4169 0006947 310.0949 193.3515 15.50304543485348 CXO 1 25867U 99040B 24342.39125787 .00000678 00000-0 00000-0 0 9998 2 25867 45.0848 140.4320 8695375 304.8223 0.1385 0.37803356 15219 ...Continue Reading

[TLELIST] Current TLEs

December 7th 2024 PST

HST 1 20580U 90037B 24341.86378054 .00010968 00000-0 46330-3 0 9992 2 20580 28.4684 265.1697 0002137 128.0372 232.0415 15.21612929703321 ISS (ZARYA) 1 25544U 98067A 24341.95936464 .00018758 00000-0 33207-3 0 9997 2 25544 51.6383 179.4169 0006947 310.0949 193.3515 15.50304543485348 CXO 1 25867U 99040B 24342.39125787 .00000678 00000-0 00000-0 0 9998 2 25867 45.0848 140.4320 8695375 304.8223 0.1385 0.37803356 15219 ...Continue Reading
  • This mailing list is a public mailing list - anyone may join or leave, at any time.
  • This mailing list is announce-only.

International Space Station (ISS) / Hubble Space Telescope (HST) / Chandra X-Ray Observatory Orbital Data via EMAIL

Privacy Policy:

Private list